Cloud_Cover
75 100 99 18 3 0 0 0 0 0 12 8 5 0 0 0 0 0 4 3 0 0 5 5 75 100 100 21 74 5 17 0 0 0 0 0 0 0 0 0 0 0 1 17 11 0 41 66 1
77 35 84 72 5 5 0 0 0 0 1 5 5 0 0 0 5 1 6 0 0 0 2 1 31 61 100 100 13 5 7 6 0 0 0 0 0 0 0 0 0 0 3 30 14 0 0 5 1
79 100 85 32 70 63 2 0 0 0 0 3 21 6 26 91 99 86 78 9 0 0 0 0 5 8 67 100 16 8 52 16 0 0 0 0 0 0 0 0 0 0 0 5 19 0 5 1 0
80 69 66 76 40 59 63 10 0 0 0 0 5 31 100 100 100 100 100 26 5 4 0 41 4 76 81 100 100 55 39 72 5 2 0 0 0 0 0 0 0 0 0 0 9 18 3 0 0
98 83 70 66 74 83 76 81 5 6 1 1 0 88 100 100 100 100 100 52 52 28 3 1 97 100 17 10 5 100 82 41 52 65 5 1 0 0 5 0 0 0 0 0 0 0 0 0 0
100 100 80 100 77 100 100 89 5 0 2 11 0 1 86 100 100 100 100 83 62 74 13 0 10 59 100 5 5 98 100 83 53 62 100 97 37 0 0 0 0 0 0 0 0 0 0 0 0
100 100 90 91 99 100 100 96 49 62 90 3 0 68 94 49 100 100 70 88 100 100 96 76 62 49 13 61 6 39 99 100 95 100 100 100 95 25 4 3 0 0 0 0 0 0 0 0 0
100 100 100 41 92 100 100 90 72 37 100 100 33 12 36 31 91 100 92 66 40 79 44 51 48 9 58 6 100 94 100 100 100 100 100 100 100 94 5 6 3 0 0 3 0 0 0 0 0
100 100 100 100 70 15 94 100 73 100 81 6 24 0 3 4 57 98 100 100 27 5 5 6 55 53 56 100 95 96 100 100 100 84 64 82 96 86 14 7 5 1 0 0 5 1 0 0 1
100 100 100 100 52 88 17 78 46 98 38 5 4 0 0 1 1 34 100 100 99 13 33 5 7 7 28 15 99 100 100 100 94 72 98 57 98 52 32 26 5 5 5 4 1 1 5 45 0
100 100 100 100 100 100 100 90 50 5 5 5 5 5 1 39 97 99 38 99 100 94 5 60 33 14 73 53 37 32 100 100 99 97 100 80 10 13 63 90 44 95 98 26 18 9 5 5 0
100 100 100 100 100 100 100 100 100 63 34 16 58 100 37 6 68 19 11 46 100 100 62 7 100 93 68 100 86 54 42 96 100 100 100 100 100 86 36 22 5 5 97 100 98 66 6 97 96
100 100 100 100 100 100 100 100 100 94 98 78 34 20 72 100 100 72 88 99 69 98 62 91 96 100 100 100 99 77 44 71 84 100 100 100 100 100 100 100 70 38 6 15 100 91 5 7 96
97 100 100 100 100 100 100 100 100 85 88 88 99 59 42 7 42 91 98 72 18 5 5 5 96 97 100 100 100 55 96 96 71 61 100 100 100 100 100 100 100 94 100 82 26 99 82 5 5
100 100 100 100 100 100 100 100 100 60 98 100 99 100 100 24 5 16 7 14 82 45 5 5 24 38 46 100 100 100 100 100 100 99 96 100 100 100 100 100 100 100 94 100 100 98 100 100 99
65 100 98 100 100 100 100 100 100 100 100 100 100 100 92 100 42 81 96 97 100 100 99 60 16 59 24 100 100 100 100 100 100 100 100 94 100 100 100 100 97 100 100 100 100 100 100 100 100
99 96 100 100 100 100 100 100 100 100 100 100 100 100 98 90 100 99 32 36 97 89 99 78 65 15 5 5 5 80 100 100 100 100 100 100 100 100 100 100 97 99 100 82 79 100 100 100 100
100 100 100 100 88 100 100 100 100 100 100 100 100 99 98 100 100 100 100 85 87 100 100 100 81 6 5 2 6 32 79 83 100 100 100 99 100 100 100 100 100 100 97 82 87 56 50 95 100
35 100 100 100 100 100 100 100 100 52 100 62 23 17 100 99 100 100 100 100 100 100 100 100 100 100 25 31 5 5 5 35 74 72 100 100 97 100 100 100 100 100 100 100 100 100 100 61 19
100 100 100 98 99 92 99 71 7 93 83 100 100 77 47 100 100 100 100 100 77 100 100 100 100 87 100 100 100 51 8 8 15 39 96 85 99 100 100 100 100 100 100 100 100 100 100 100 100
100 100 100 100 100 100 100 100 85 95 24 8 73 89 26 100 92 100 100 100 100 96 99 100 100 100 100 100 100 100 100 68 38 6 9 65 73 100 100 100 100 100 100 100 100 100 100 100 100
99 100 100 100 100 100 100 100 86 99 48 16 19 54 40 23 84 100 100 100 65 91 100 100 100 100 100 100 100 100 100 100 100 99 94 28 16 70 97 88 100 100 100 100 100 100 100 100 100
7 5 7 45 67 51 96 100 100 100 99 100 100 95 41 5 5 44 84 96 92 10 11 52 65 100 68 7 79 95 100 100 100 100 99 100 83 46 84 100 100 100 100 100 100 100 100 100 100
1 5 9 7 5 38 60 77 100 100 100 100 100 100 100 100 61 11 5 5 9 22 60 70 14 5 1 0 1 3 3 4 30 70 16 7 67 62 9 92 100 100 100 100 100 100 100 100 100
5 5 2 0 0 4 94 21 7 13 36 55 98 100 100 100 100 100 98 99 98 84 89 69 26 11 5 5 5 0 0 0 0 0 0 2 3 1 5 52 100 93 100 100 100 98 98 98 100
0 2 5 5 2 13 5 17 68 64 48 5 16 53 96 100 100 100 100 100 100 100 100 30 6 0 0 0 0 0 0 0 0 0 0 0 0 0 0 0 2 22 56 100 100 69 100 96 21
0 0 4 5 5 5 36 5 21 10 4 3 2 38 89 84 60 100 100 21 11 8 1 0 1 0 0 0 0 0 0 0 0 0 0 0 0 0 0 0 0 5 5 5 15 44 27 15 68
0 0 0 0 5 26 28 5 15 66 84 57 12 2 0 1 5 5 8 4 0 0 0 0 0 0 0 0 0 0 0 0 0 0 0 0 0 0 0 0 0 0 0 1 1 4 17 45 7
2 0 0 0 3 10 99 5 0 1 8 40 42 44 10 5 0 0 0 0 0 0 0 0 0 0 0 0 0 0 0 3 0 1 1 0 0 0 0 0 3 2 3 0 3 0 4 5 5
5 5 0 61 30 0 5 12 0 0 0 0 0 0 0 0 0 0 0 0 0 0 0 0 0 0 0 0 0 4 0 3 5 0 1 4 1 0 5 4 5 5 2 4 2 2 0 0 0